CDT,Max TemperatureF,Mean TemperatureF,Min TemperatureF,Max Dew PointF,MeanDew PointF,Min DewpointF,Max Humidity, Mean Humidity, Min Humidity, Max Sea Level PressureIn, Mean Sea Level PressureIn, Min Sea Level PressureIn, Max VisibilityMiles, Mean VisibilityMiles, Min VisibilityMiles, Max Wind SpeedMPH, Mean Wind SpeedMPH, Max Gust SpeedMPH,PrecipitationIn, CloudCover, Events, WindDirDegrees
2012-10-1,73,63,53,57,51,43,100,69,35,30.09,30.02,29.95,10,10,10,22,6,32,0.00,1,Rain-Thunderstorm,351
2012-10-2,75,58,42,46,42,32,100,59,23,30.11,30.03,29.91,10,10,10,8,2,,0.00,0,,238
2012-10-3,80,66,53,54,47,41,67,50,34,29.94,29.90,29.84,10,10,10,21,10,25,0.00,0,,197
2012-10-4,68,60,51,54,41,34,88,54,39,30.28,30.16,29.92,10,10,10,24,12,39,0.00,6,,51
2012-10-5,60,53,46,41,35,27,71,50,36,30.27,30.20,30.14,10,10,7,17,8,23,0.00,6,,70
2012-10-6,50,46,42,34,31,25,70,59,37,30.35,30.29,30.26,10,10,5,15,10,20,0.00,8,,67
2012-10-7,50,42,33,34,32,30,93,72,50,30.35,30.27,30.18,10,10,10,9,4,,0.00,3,,173
2012-10-8,68,49,30,37,34,28,100,61,28,30.19,30.06,29.92,10,10,10,22,7,32,0.00,0,,207
2012-10-9,78,60,41,45,39,21,100,55,12,30.16,29.93,29.84,10,10,7,22,10,28,0.00,0,,15
2012-10-10,64,50,35,43,36,27,93,56,27,30.28,30.19,30.10,10,10,10,14,7,17,0.00,3,,139
2012-10-11,86,68,50,64,55,43,88,66,40,30.11,30.04,29.96,10,10,10,22,11,29,0.00,1,,205
2012-10-12,71,61,51,66,51,37,100,72,54,30.25,30.11,29.95,10,10,5,23,6,32,0.04,6,Rain-Thunderstorm,47
2012-10-13,82,72,62,64,48,25,88,53,13,29.92,29.83,29.74,10,10,10,30,17,39,0.00,2,Thunderstorm,235
2012-10-14,77,64,50,46,40,34,72,46,21,30.21,30.10,29.88,10,10,10,22,12,30,0.00,0,,321
2012-10-15,86,64,41,43,37,32,87,44,14,30.17,30.01,29.86,10,10,10,23,6,31,0.00,0,,218
2012-10-16,82,66,51,46,42,36,72,44,23,29.85,29.69,29.52,10,10,10,16,7,24,0.00,0,,220
2012-10-17,69,55,41,41,30,19,67,32,16,29.92,29.71,29.45,10,10,10,31,10,39,0.00,0,,345
2012-10-18,66,48,30,28,22,18,80,41,17,30.10,30.03,29.92,10,10,10,17,4,25,0.00,0,,295
2012-10-19,78,56,35,34,25,18,60,32,15,30.09,29.96,29.83,10,10,10,14,4,20,0.00,0,,252
2012-10-20,82,63,44,41,38,32,76,42,17,29.83,29.75,29.69,10,10,10,12,5,,0.00,0,,191
2012-10-21,95,68,41,41,34,25,87,39,8,29.75,29.70,29.65,10,10,10,24,5,32,0.00,0,,232
2012-10-22,87,70,53,64,43,34,88,42,15,29.91,29.80,29.75,10,10,10,22,8,30,0.00,0,,207
2012-10-23,93,78,62,64,46,23,94,46,8,29.83,29.78,29.72,10,10,7,24,16,30,0.00,0,,210
2012-10-24,86,74,62,64,61,57,88,68,37,29.82,29.75,29.63,10,10,10,28,16,33,0.00,0,,200
2012-10-25,71,55,37,63,37,30,88,64,47,30.27,30.06,29.63,10,10,7,26,17,38,0.03,3,,6
2012-10-26,50,41,32,30,26,23,87,62,37,30.47,30.39,30.28,10,10,10,20,6,25,0.00,3,,27
2012-10-27,53,37,21,27,23,18,86,58,30,30.39,30.26,30.14,10,10,7,12,3,,0.00,0,,186
2012-10-28,64,45,26,27,23,19,80,46,19,30.25,30.19,30.12,10,10,10,17,4,24,0.00,0,,187
2012-10-29,71,56,41,32,30,25,61,40,23,30.21,30.14,30.05,10,10,10,20,11,25,0.00,0,,212
2012-10-30,82,58,35,36,32,28,87,42,14,30.07,30.01,29.94,10,10,10,16,6,21,0.00,0,,297
2012-10-31,82,58,35,37,33,30,87,47,15,30.11,30.04,29.98,10,10,7,9,2,,0.00,0,,248